QPF
0.05 0.04 0.03 0.02 0.03 0.03 0.03 0.05 0.06 0.06 0.03 0.02 0.02 0.02 0.02 0.02 0.02 0.02 0.01 0.02 0.04 0.05 0.07 0.07 0.06 0.05 0.05 0.05 0.05 0.04 0.04 0.05 0.07 0.09 0.10 0.10 0.11 0.13 0.16 0.17 0.17 0.16 0.14
0.06 0.05 0.04 0.03 0.04 0.05 0.07 0.07 0.06 0.05 0.03 0.02 0.02 0.02 0.03 0.02 0.02 0.02 0.02 0.02 0.04 0.04 0.05 0.06 0.06 0.06 0.06 0.07 0.06 0.05 0.05 0.05 0.04 0.05 0.07 0.08 0.09 0.11 0.13 0.17 0.18 0.18 0.18
0.05 0.05 0.05 0.05 0.06 0.06 0.05 0.05 0.04 0.03 0.03 0.03 0.02 0.02 0.02 0.02 0.01 0.01 0.02 0.02 0.02 0.03 0.04 0.04 0.05 0.05 0.06 0.07 0.07 0.06 0.05 0.05 0.04 0.05 0.05 0.07 0.08 0.10 0.12 0.14 0.17 0.18 0.16
0.06 0.06 0.05 0.04 0.04 0.04 0.04 0.04 0.05 0.04 0.04 0.04 0.03 0.02 0.02 0.02 0.02 0.02 0.03 0.03 0.02 0.02 0.02 0.05 0.06 0.07 0.08 0.07 0.08 0.08 0.06 0.05 0.05 0.04 0.04 0.05 0.07 0.10 0.13 0.15 0.16 0.16 0.14
0.07 0.07 0.05 0.03 0.04 0.05 0.05 0.05 0.05 0.07 0.06 0.04 0.03 0.02 0.02 0.02 0.02 0.02 0.02 0.02 0.02 0.02 0.02 0.04 0.06 0.07 0.07 0.07 0.08 0.07 0.07 0.05 0.04 0.03 0.03 0.03 0.04 0.07 0.10 0.13 0.15 0.15 0.14
0.07 0.06 0.05 0.05 0.05 0.06 0.05 0.04 0.05 0.06 0.06 0.05 0.04 0.03 0.02 0.02 0.02 0.02 0.02 0.02 0.02 0.02 0.02 0.03 0.03 0.03 0.05 0.06 0.06 0.06 0.06 0.06 0.05 0.04 0.04 0.03 0.03 0.04 0.07 0.09 0.13 0.15 0.14
0.04 0.04 0.06 0.08 0.07 0.06 0.05 0.05 0.05 0.05 0.05 0.05 0.05 0.04 0.03 0.02 0.02 0.01 0.02 0.02 0.02 0.02 0.02 0.02 0.02 0.02 0.02 0.03 0.03 0.04 0.04 0.05 0.05 0.05 0.04 0.03 0.03 0.04 0.05 0.07 0.09 0.13 0.15
0.05 0.05 0.06 0.08 0.08 0.08 0.07 0.05 0.05 0.04 0.04 0.04 0.05 0.06 0.05 0.04 0.02 0.02 0.02 0.02 0.02 0.02 0.02 0.02 0.03 0.02 0.02 0.02 0.02 0.03 0.04 0.05 0.05 0.06 0.05 0.05 0.04 0.05 0.06 0.08 0.08 0.10 0.13
0.07 0.07 0.08 0.07 0.06 0.06 0.06 0.08 0.08 0.06 0.05 0.05 0.05 0.05 0.04 0.03 0.02 0.02 0.03 0.03 0.03 0.03 0.02 0.02 0.03 0.03 0.03 0.03 0.03 0.03 0.03 0.02 0.03 0.04 0.05 0.05 0.05 0.07 0.08 0.08 0.08 0.09 0.11
0.09 0.09 0.08 0.07 0.06 0.05 0.05 0.06 0.07 0.07 0.07 0.07 0.07 0.07 0.06 0.04 0.03 0.02 0.02 0.02 0.02 0.02 0.02 0.02 0.03 0.03 0.02 0.02 0.02 0.01 0.01 0.01 0.01 0.02 0.03 0.04 0.05 0.05 0.06 0.07 0.08 0.08 0.09
0.14 0.13 0.09 0.06 0.04 0.03 0.03 0.03 0.04 0.04 0.04 0.04 0.04 0.05 0.07 0.06 0.05 0.03 0.02 0.02 0.01 0.01 0.01 0.01 0.01 0.01 0.01 0.01 0.01 0.01 0.01 0.01 0.01 0.01 0.02 0.03 0.03 0.04 0.06 0.07 0.07 0.08 0.09
0.13 0.13 0.10 0.05 0.04 0.02 0.02 0.02 0.03 0.03 0.05 0.05 0.04 0.04 0.04 0.04 0.03 0.03 0.02 0.02 0.01 0.01 0.01 0.01 0.01 0.01 0.01 0.01 0.00 0.00 0.01 0.01 0.01 0.02 0.02 0.03 0.03 0.04 0.06 0.07 0.08 0.08 0.08
0.08 0.07 0.07 0.06 0.04 0.03 0.03 0.04 0.04 0.04 0.05 0.05 0.05 0.04 0.04 0.04 0.04 0.03 0.03 0.01 0.01 0.01 0.01 0.01 0.01 0.01 0.01 0.01 0.00 0.00 0.00 0.01 0.01 0.02 0.03 0.04 0.05 0.05 0.05 0.06 0.06 0.07 0.08
0.06 0.05 0.05 0.05 0.04 0.03 0.03 0.04 0.04 0.05 0.05 0.05 0.05 0.05 0.05 0.05 0.04 0.04 0.03 0.02 0.02 0.01 0.01 0.01 0.01 0.01 0.01 0.00 0.00 0.00 0.00 0.00 0.00 0.01 0.01 0.02 0.03 0.05 0.07 0.07 0.06 0.05 0.06
0.05 0.04 0.04 0.04 0.04 0.04 0.04 0.03 0.03 0.04 0.05 0.04 0.05 0.05 0.04 0.04 0.04 0.05 0.05 0.04 0.04 0.03 0.02 0.01 0.01 0.01 0.01 0.01 0.01 0.00 0.00 0.00 0.00 0.00 0.01 0.01 0.01 0.02 0.03 0.04 0.04 0.04 0.05
0.05 0.04 0.03 0.03 0.03 0.04 0.04 0.04 0.05 0.05 0.06 0.06 0.06 0.05 0.05 0.04 0.04 0.05 0.04 0.04 0.04 0.05 0.04 0.03 0.01 0.01 0.01 0.01 0.01 0.01 0.00 0.00 0.00 0.00 0.00 0.00 0.01 0.01 0.01 0.02 0.03 0.03 0.03
0.03 0.03 0.03 0.03 0.03 0.04 0.04 0.05 0.06 0.06 0.05 0.05 0.05 0.04 0.04 0.04 0.04 0.04 0.03 0.03 0.04 0.04 0.05 0.04 0.03 0.03 0.03 0.02 0.02 0.02 0.01 0.01 0.00 0.00 0.00 0.00 0.01 0.01 0.02 0.03 0.04 0.04 0.03
0.03 0.02 0.02 0.02 0.02 0.03 0.04 0.04 0.04 0.02 0.02 0.02 0.02 0.03 0.04 0.05 0.05 0.04 0.04 0.04 0.04 0.04 0.04 0.03 0.03 0.03 0.04 0.05 0.04 0.03 0.01 0.01 0.01 0.01 0.01 0.01 0.01 0.02 0.03 0.03 0.04 0.05 0.05
0.02 0.02 0.02 0.01 0.02 0.03 0.04 0.04 0.03 0.01 0.01 0.01 0.01 0.02 0.03 0.05 0.06 0.05 0.05 0.05 0.04 0.04 0.03 0.02 0.02 0.02 0.02 0.04 0.04 0.03 0.02 0.01 0.01 0.01 0.01 0.01 0.02 0.02 0.03 0.04 0.04 0.05 0.06
0.02 0.01 0.01 0.01 0.01 0.02 0.04 0.07 0.04 0.01 0.01 0.01 0.01 0.02 0.02 0.04 0.04 0.05 0.06 0.06 0.05 0.04 0.03 0.03 0.03 0.02 0.02 0.03 0.05 0.04 0.03 0.02 0.02 0.01 0.01 0.02 0.02 0.02 0.03 0.03 0.04 0.05 0.06
0.01 0.01 0.01 0.02 0.02 0.02 0.05 0.08 0.04 0.02 0.01 0.01 0.02 0.03 0.03 0.04 0.03 0.05 0.07 0.06 0.06 0.06 0.06 0.05 0.05 0.04 0.03 0.04 0.04 0.03 0.03 0.03 0.03 0.02 0.02 0.03 0.02 0.02 0.02 0.04 0.04 0.05 0.06
0.02 0.02 0.01 0.01 0.02 0.03 0.07 0.07 0.03 0.02 0.02 0.01 0.02 0.02 0.03 0.03 0.04 0.04 0.05 0.05 0.06 0.06 0.05 0.05 0.04 0.03 0.03 0.04 0.03 0.02 0.02 0.03 0.03 0.03 0.05 0.05 0.03 0.03 0.04 0.04 0.05 0.06 0.07
0.02 0.02 0.02 0.02 0.02 0.04 0.06 0.05 0.02 0.02 0.01 0.01 0.02 0.02 0.02 0.03 0.03 0.03 0.04 0.05 0.06 0.06 0.06 0.05 0.05 0.04 0.03 0.03 0.04 0.04 0.04 0.05 0.04 0.05 0.07 0.07 0.05 0.04 0.05 0.06 0.05 0.05 0.06
0.01 0.03 0.03 0.03 0.04 0.06 0.07 0.05 0.02 0.02 0.02 0.02 0.02 0.02 0.03 0.03 0.03 0.04 0.04 0.03 0.03 0.04 0.05 0.05 0.04 0.04 0.03 0.03 0.03 0.03 0.04 0.06 0.04 0.03 0.05 0.07 0.07 0.05 0.04 0.06 0.07 0.06 0.05
0.04 0.06 0.06 0.07 0.08 0.08 0.06 0.04 0.02 0.03 0.02 0.02 0.03 0.03 0.04 0.03 0.03 0.04 0.04 0.03 0.03 0.03 0.04 0.05 0.05 0.05 0.05 0.04 0.03 0.03 0.04 0.05 0.04 0.02 0.03 0.06 0.08 0.08 0.07 0.06 0.07 0.08 0.07
0.07 0.08 0.08 0.09 0.07 0.05 0.04 0.02 0.02 0.02 0.02 0.02 0.02 0.03 0.03 0.02 0.03 0.03 0.03 0.02 0.02 0.02 0.03 0.03 0.04 0.05 0.05 0.03 0.03 0.03 0.04 0.06 0.05 0.03 0.02 0.03 0.06 0.07 0.07 0.06 0.06 0.07 0.07
MSLP
1012.25 1012.48 1012.61 1012.69 1012.75 1012.83 1012.95 1013.12 1013.33 1013.55 1013.76 1013.92 1014.00 1014.01 1013.94 1013.82 1013.65 1013.47 1013.30 1013.17 1013.07 1013.02 1013.03 1013.08 1013.19 1013.35 1013.55 1013.80 1014.07 1014.36 1014.66 1014.96 1015.25 1015.52 1015.80 1016.06 1016.32 1016.58 1016.85 1017.12 1017.39 1017.66 1017.92
1012.02 1012.21 1012.34 1012.43 1012.52 1012.64 1012.80 1013.02 1013.26 1013.50 1013.72 1013.88 1013.96 1013.96 1013.86 1013.70 1013.49 1013.27 1013.06 1012.88 1012.76 1012.69 1012.69 1012.74 1012.86 1013.02 1013.22 1013.46 1013.71 1013.98 1014.26 1014.54 1014.81 1015.08 1015.35 1015.62 1015.88 1016.15 1016.42 1016.68 1016.94 1017.19 1017.44
1011.67 1011.85 1012.00 1012.14 1012.29 1012.47 1012.69 1012.95 1013.23 1013.50 1013.72 1013.88 1013.95 1013.92 1013.80 1013.60 1013.36 1013.10 1012.86 1012.65 1012.50 1012.42 1012.40 1012.45 1012.57 1012.73 1012.93 1013.15 1013.40 1013.66 1013.91 1014.18 1014.44 1014.70 1014.97 1015.24 1015.50 1015.76 1016.02 1016.26 1016.50 1016.72 1016.93
1011.26 1011.46 1011.64 1011.84 1012.07 1012.32 1012.61 1012.91 1013.21 1013.49 1013.72 1013.86 1013.92 1013.87 1013.73 1013.52 1013.27 1012.99 1012.72 1012.49 1012.32 1012.22 1012.19 1012.24 1012.35 1012.50 1012.70 1012.92 1013.16 1013.40 1013.65 1013.90 1014.15 1014.41 1014.67 1014.94 1015.19 1015.44 1015.68 1015.90 1016.10 1016.28 1016.45
1010.85 1011.07 1011.31 1011.58 1011.88 1012.20 1012.54 1012.88 1013.19 1013.46 1013.67 1013.80 1013.84 1013.80 1013.66 1013.46 1013.20 1012.93 1012.66 1012.42 1012.24 1012.13 1012.10 1012.13 1012.23 1012.38 1012.57 1012.78 1013.00 1013.24 1013.47 1013.71 1013.96 1014.20 1014.46 1014.71 1014.95 1015.18 1015.40 1015.59 1015.75 1015.89 1016.02
1010.50 1010.76 1011.06 1011.39 1011.75 1012.12 1012.49 1012.83 1013.13 1013.38 1013.57 1013.68 1013.72 1013.68 1013.58 1013.40 1013.18 1012.94 1012.69 1012.47 1012.29 1012.17 1012.12 1012.14 1012.22 1012.36 1012.53 1012.73 1012.94 1013.16 1013.38 1013.60 1013.83 1014.06 1014.30 1014.53 1014.76 1014.97 1015.16 1015.31 1015.44 1015.55 1015.64
1010.28 1010.57 1010.91 1011.29 1011.69 1012.08 1012.44 1012.76 1013.04 1013.25 1013.41 1013.52 1013.57 1013.56 1013.49 1013.38 1013.22 1013.03 1012.82 1012.62 1012.45 1012.33 1012.26 1012.26 1012.32 1012.43 1012.58 1012.76 1012.95 1013.14 1013.34 1013.54 1013.74 1013.94 1014.16 1014.36 1014.56 1014.75 1014.92 1015.05 1015.15 1015.23 1015.29
1010.20 1010.52 1010.88 1011.29 1011.69 1012.07 1012.41 1012.69 1012.92 1013.09 1013.22 1013.33 1013.40 1013.44 1013.44 1013.40 1013.31 1013.19 1013.03 1012.86 1012.70 1012.57 1012.49 1012.46 1012.48 1012.57 1012.68 1012.83 1012.98 1013.15 1013.31 1013.48 1013.64 1013.81 1013.98 1014.16 1014.34 1014.50 1014.64 1014.75 1014.84 1014.91 1014.95
1010.28 1010.60 1010.98 1011.38 1011.76 1012.10 1012.39 1012.62 1012.79 1012.93 1013.04 1013.15 1013.26 1013.35 1013.43 1013.47 1013.46 1013.40 1013.29 1013.15 1013.00 1012.85 1012.74 1012.67 1012.66 1012.70 1012.78 1012.88 1013.00 1013.12 1013.24 1013.36 1013.48 1013.60 1013.74 1013.88 1014.02 1014.15 1014.28 1014.39 1014.48 1014.54 1014.59
1010.46 1010.79 1011.16 1011.53 1011.88 1012.17 1012.40 1012.56 1012.68 1012.79 1012.90 1013.02 1013.16 1013.32 1013.46 1013.58 1013.63 1013.62 1013.55 1013.42 1013.26 1013.10 1012.95 1012.84 1012.78 1012.78 1012.80 1012.86 1012.94 1013.01 1013.08 1013.15 1013.22 1013.30 1013.38 1013.48 1013.59 1013.70 1013.82 1013.92 1014.02 1014.10 1014.16
1010.68 1011.02 1011.37 1011.72 1012.01 1012.25 1012.42 1012.53 1012.62 1012.69 1012.80 1012.94 1013.12 1013.32 1013.52 1013.69 1013.79 1013.81 1013.75 1013.62 1013.44 1013.24 1013.06 1012.91 1012.80 1012.74 1012.72 1012.74 1012.76 1012.78 1012.80 1012.82 1012.84 1012.86 1012.91 1012.97 1013.05 1013.14 1013.25 1013.36 1013.47 1013.56 1013.65
1010.91 1011.24 1011.58 1011.89 1012.14 1012.32 1012.45 1012.52 1012.57 1012.63 1012.74 1012.89 1013.10 1013.33 1013.56 1013.74 1013.86 1013.89 1013.83 1013.68 1013.48 1013.24 1013.02 1012.82 1012.67 1012.57 1012.50 1012.47 1012.44 1012.42 1012.39 1012.35 1012.32 1012.31 1012.31 1012.34 1012.40 1012.48 1012.58 1012.70 1012.82 1012.94 1013.05
1011.10 1011.42 1011.74 1012.02 1012.23 1012.37 1012.45 1012.50 1012.52 1012.58 1012.68 1012.84 1013.04 1013.28 1013.51 1013.69 1013.80 1013.82 1013.73 1013.56 1013.32 1013.07 1012.81 1012.58 1012.39 1012.25 1012.14 1012.06 1011.99 1011.92 1011.84 1011.76 1011.70 1011.64 1011.62 1011.62 1011.66 1011.74 1011.84 1011.96 1012.10 1012.23 1012.36
1011.22 1011.54 1011.84 1012.08 1012.26 1012.38 1012.42 1012.44 1012.45 1012.49 1012.58 1012.72 1012.91 1013.12 1013.32 1013.48 1013.56 1013.54 1013.43 1013.23 1012.98 1012.70 1012.43 1012.18 1011.96 1011.79 1011.65 1011.53 1011.41 1011.30 1011.18 1011.07 1010.96 1010.88 1010.84 1010.83 1010.86 1010.94 1011.04 1011.17 1011.31 1011.46 1011.59
1011.30 1011.60 1011.87 1012.08 1012.23 1012.31 1012.34 1012.33 1012.32 1012.33 1012.39 1012.50 1012.64 1012.81 1012.96 1013.06 1013.10 1013.05 1012.91 1012.70 1012.45 1012.16 1011.89 1011.63 1011.41 1011.21 1011.04 1010.88 1010.73 1010.57 1010.42 1010.27 1010.15 1010.05 1009.99 1009.98 1010.01 1010.09 1010.20 1010.33 1010.47 1010.62 1010.76
1011.34 1011.61 1011.85 1012.02 1012.14 1012.18 1012.18 1012.14 1012.09 1012.07 1012.08 1012.13 1012.21 1012.31 1012.40 1012.45 1012.44 1012.35 1012.20 1012.00 1011.75 1011.48 1011.22 1010.97 1010.74 1010.53 1010.34 1010.14 1009.96 1009.76 1009.58 1009.41 1009.26 1009.16 1009.09 1009.08 1009.12 1009.19 1009.30 1009.43 1009.58 1009.72 1009.86
1011.36 1011.59 1011.78 1011.91 1011.98 1011.98 1011.94 1011.86 1011.77 1011.69 1011.64 1011.62 1011.62 1011.64 1011.66 1011.64 1011.59 1011.49 1011.34 1011.14 1010.92 1010.68 1010.44 1010.21 1009.98 1009.76 1009.55 1009.33 1009.11 1008.88 1008.67 1008.48 1008.32 1008.20 1008.14 1008.13 1008.17 1008.25 1008.36 1008.48 1008.62 1008.75 1008.88
1011.36 1011.54 1011.67 1011.75 1011.76 1011.72 1011.63 1011.50 1011.35 1011.21 1011.09 1010.98 1010.91 1010.85 1010.79 1010.72 1010.63 1010.51 1010.36 1010.19 1010.00 1009.79 1009.58 1009.37 1009.15 1008.92 1008.69 1008.44 1008.19 1007.94 1007.71 1007.50 1007.33 1007.22 1007.15 1007.14 1007.18 1007.25 1007.35 1007.46 1007.58 1007.70 1007.83
1011.33 1011.44 1011.51 1011.53 1011.49 1011.40 1011.26 1011.08 1010.88 1010.67 1010.46 1010.29 1010.13 1009.99 1009.86 1009.74 1009.62 1009.49 1009.35 1009.20 1009.03 1008.86 1008.67 1008.47 1008.25 1008.02 1007.76 1007.50 1007.23 1006.96 1006.71 1006.50 1006.32 1006.20 1006.14 1006.12 1006.14 1006.20 1006.28 1006.37 1006.47 1006.58 1006.70
1011.25 1011.30 1011.30 1011.26 1011.17 1011.03 1010.84 1010.61 1010.36 1010.09 1009.83 1009.58 1009.35 1009.15 1008.96 1008.80 1008.65 1008.50 1008.36 1008.22 1008.06 1007.90 1007.73 1007.53 1007.31 1007.06 1006.80 1006.52 1006.24 1005.96 1005.71 1005.49 1005.32 1005.20 1005.13 1005.10 1005.10 1005.13 1005.18 1005.24 1005.31 1005.39 1005.49
1011.10 1011.08 1011.02 1010.93 1010.80 1010.62 1010.40 1010.14 1009.85 1009.54 1009.24 1008.93 1008.65 1008.39 1008.16 1007.96 1007.77 1007.60 1007.45 1007.30 1007.14 1006.97 1006.79 1006.58 1006.35 1006.09 1005.82 1005.54 1005.25 1004.98 1004.74 1004.54 1004.37 1004.24 1004.16 1004.10 1004.08 1004.06 1004.07 1004.08 1004.12 1004.17 1004.26
1010.88 1010.80 1010.70 1010.57 1010.40 1010.21 1009.97 1009.70 1009.39 1009.07 1008.73 1008.40 1008.09 1007.79 1007.52 1007.28 1007.06 1006.86 1006.67 1006.49 1006.30 1006.10 1005.89 1005.66 1005.41 1005.15 1004.87 1004.60 1004.33 1004.08 1003.85 1003.66 1003.50 1003.37 1003.26 1003.17 1003.10 1003.04 1002.99 1002.96 1002.95 1002.98 1003.04
1010.60 1010.48 1010.35 1010.20 1010.03 1009.83 1009.60 1009.33 1009.04 1008.71 1008.38 1008.04 1007.70 1007.38 1007.08 1006.80 1006.54 1006.30 1006.06 1005.83 1005.59 1005.35 1005.10 1004.83 1004.56 1004.28 1004.01 1003.75 1003.50 1003.28 1003.08 1002.89 1002.74 1002.59 1002.46 1002.32 1002.20 1002.08 1001.97 1001.89 1001.84 1001.84 1001.88
1010.33 1010.18 1010.04 1009.89 1009.73 1009.54 1009.34 1009.09 1008.82 1008.52 1008.20 1007.86 1007.53 1007.20 1006.88 1006.56 1006.26 1005.96 1005.66 1005.36 1005.06 1004.76 1004.45 1004.14 1003.84 1003.56 1003.29 1003.04 1002.82 1002.62 1002.43 1002.26 1002.10 1001.92 1001.75 1001.56 1001.38 1001.20 1001.03 1000.90 1000.81 1000.78 1000.82
1010.12 1009.98 1009.84 1009.71 1009.57 1009.41 1009.23 1009.02 1008.78 1008.51 1008.21 1007.90 1007.56 1007.23 1006.89 1006.55 1006.20 1005.84 1005.48 1005.12 1004.74 1004.37 1004.00 1003.65 1003.32 1003.02 1002.74 1002.50 1002.30 1002.11 1001.93 1001.75 1001.56 1001.35 1001.12 1000.87 1000.62 1000.37 1000.15 999.98 999.86 999.83 999.87
1010.06 1009.93 1009.81 1009.71 1009.60 1009.47 1009.32 1009.15 1008.94 1008.69 1008.42 1008.12 1007.80 1007.46 1007.11 1006.74 1006.35 1005.94 1005.52 1005.08 1004.64 1004.20 1003.78 1003.37 1003.01 1002.68 1002.40 1002.16 1001.94 1001.74 1001.54 1001.33 1001.09 1000.82 1000.52 1000.20 999.87 999.57 999.30 999.10 998.98 998.94 999.00
Thickness
5713 5710 5708 5707 5705 5703 5702 5701 5700 5699 5698 5697 5695 5694 5694 5693 5692 5691 5691 5691 5691 5691 5690 5690 5690 5690 5690 5689 5689 5689 5690 5690 5690 5691 5691 5691 5691 5691 5691 5691 5691 5691 5691
5709 5706 5704 5702 5701 5698 5697 5696 5695 5694 5693 5692 5691 5690 5690 5689 5688 5687 5686 5686 5686 5686 5686 5686 5686 5686 5685 5685 5685 5685 5686 5686 5686 5687 5687 5687 5688 5688 5688 5688 5689 5689 5688
5704 5702 5699 5698 5697 5694 5692 5691 5690 5689 5688 5687 5686 5686 5685 5684 5683 5683 5682 5681 5681 5681 5682 5682 5681 5681 5681 5681 5681 5681 5681 5681 5682 5683 5683 5683 5684 5684 5685 5685 5686 5686 5686
5700 5697 5694 5693 5692 5690 5688 5686 5685 5683 5682 5681 5681 5681 5680 5680 5679 5678 5677 5676 5676 5676 5676 5677 5677 5677 5676 5676 5676 5676 5676 5676 5676 5677 5678 5679 5680 5680 5681 5682 5683 5683 5683
5695 5693 5690 5688 5686 5684 5682 5681 5679 5678 5676 5675 5675 5675 5675 5674 5674 5673 5673 5672 5672 5671 5671 5671 5671 5671 5671 5671 5671 5671 5671 5671 5671 5672 5673 5675 5675 5676 5677 5678 5679 5679 5679
5691 5688 5685 5683 5681 5679 5677 5675 5673 5672 5671 5670 5670 5669 5669 5669 5669 5668 5668 5668 5667 5666 5666 5665 5665 5665 5666 5665 5665 5666 5666 5666 5666 5667 5668 5669 5670 5671 5672 5673 5675 5675 5676
5686 5683 5680 5677 5675 5673 5671 5669 5667 5665 5664 5663 5661 5661 5662 5662 5662 5662 5662 5662 5662 5661 5660 5660 5659 5659 5659 5659 5659 5660 5660 5660 5661 5661 5663 5664 5664 5666 5667 5668 5670 5670 5672
5680 5678 5675 5672 5670 5668 5665 5663 5660 5658 5657 5656 5653 5651 5650 5652 5654 5656 5655 5655 5655 5655 5654 5654 5653 5652 5652 5652 5653 5653 5654 5654 5655 5656 5657 5658 5659 5660 5661 5663 5664 5665 5667
5674 5672 5669 5667 5664 5662 5659 5657 5654 5652 5650 5649 5647 5644 5641 5641 5644 5646 5647 5648 5648 5647 5647 5646 5646 5646 5646 5646 5646 5647 5647 5648 5648 5650 5651 5652 5653 5654 5656 5657 5658 5660 5661
5667 5666 5663 5661 5658 5656 5654 5652 5651 5647 5645 5643 5640 5638 5637 5636 5634 5636 5639 5640 5640 5640 5640 5640 5639 5639 5639 5639 5639 5640 5641 5641 5642 5643 5644 5646 5647 5649 5650 5652 5653 5654 5656
5661 5659 5657 5655 5653 5651 5649 5647 5645 5642 5640 5638 5636 5633 5630 5628 5626 5626 5629 5631 5632 5633 5633 5633 5633 5633 5634 5634 5634 5634 5635 5635 5636 5637 5638 5639 5641 5643 5644 5646 5648 5649 5651
5656 5654 5652 5650 5648 5646 5644 5642 5640 5638 5636 5634 5631 5628 5626 5624 5623 5620 5620 5622 5624 5627 5627 5628 5628 5628 5628 5628 5628 5629 5629 5630 5630 5631 5632 5633 5635 5637 5639 5640 5642 5644 5645
5651 5649 5648 5645 5643 5641 5639 5636 5634 5633 5631 5629 5627 5625 5623 5620 5618 5616 5614 5615 5616 5618 5619 5621 5621 5621 5621 5622 5622 5623 5623 5624 5624 5625 5626 5627 5629 5631 5633 5635 5636 5639 5640
5646 5644 5642 5640 5638 5636 5634 5631 5630 5628 5627 5625 5623 5621 5619 5617 5614 5611 5609 5608 5609 5611 5612 5613 5614 5615 5615 5615 5616 5616 5616 5617 5618 5618 5619 5621 5623 5625 5627 5629 5631 5633 5634
5640 5639 5637 5635 5633 5631 5629 5627 5625 5623 5622 5620 5617 5615 5613 5612 5609 5607 5605 5603 5602 5603 5605 5607 5607 5609 5608 5609 5609 5609 5610 5611 5611 5612 5613 5615 5617 5619 5620 5622 5625 5627 5628
5635 5633 5631 5630 5628 5626 5624 5622 5620 5618 5616 5614 5611 5609 5607 5606 5604 5602 5600 5598 5596 5596 5597 5600 5600 5602 5602 5602 5602 5602 5603 5604 5605 5606 5607 5609 5611 5612 5614 5616 5618 5620 5622
5632 5629 5627 5625 5623 5621 5619 5617 5614 5613 5610 5608 5605 5603 5602 5600 5598 5597 5595 5593 5591 5589 5589 5593 5593 5594 5593 5594 5595 5595 5596 5597 5598 5600 5601 5602 5604 5605 5607 5608 5610 5612 5615
5627 5625 5623 5621 5619 5617 5615 5612 5609 5608 5605 5602 5600 5597 5596 5595 5593 5591 5589 5587 5585 5583 5583 5584 5586 5586 5586 5587 5587 5588 5589 5591 5591 5593 5594 5596 5597 5598 5600 5601 5603 5605 5607
5624 5622 5619 5617 5615 5613 5611 5608 5605 5603 5600 5597 5594 5592 5590 5589 5587 5585 5583 5581 5580 5579 5577 5576 5578 5578 5579 5579 5579 5581 5582 5583 5585 5586 5588 5589 5591 5592 5593 5594 5596 5598 5600
5620 5618 5616 5614 5612 5610 5607 5605 5602 5599 5596 5592 5589 5587 5586 5584 5581 5579 5578 5576 5574 5572 5571 5570 5570 5570 5571 5571 5570 5572 5575 5575 5577 5579 5581 5582 5583 5584 5586 5588 5590 5591 5593
5617 5615 5613 5611 5609 5607 5605 5601 5598 5595 5591 5588 5586 5584 5582 5579 5577 5574 5572 5570 5568 5566 5564 5564 5564 5563 5563 5563 5563 5564 5566 5567 5569 5570 5572 5574 5575 5577 5578 5580 5583 5585 5587
5614 5612 5610 5608 5606 5604 5601 5598 5595 5591 5588 5584 5582 5579 5577 5574 5571 5568 5566 5564 5562 5560 5558 5557 5556 5556 5557 5557 5556 5556 5557 5558 5561 5563 5562 5566 5567 5569 5571 5573 5576 5579 5580
5611 5609 5607 5605 5603 5601 5598 5594 5591 5587 5584 5580 5577 5574 5572 5569 5565 5562 5560 5558 5556 5554 5552 5550 5549 5549 5549 5550 5549 5549 5549 5550 5552 5554 5553 5557 5559 5562 5565 5567 5569 5572 5574
5609 5606 5604 5602 5599 5597 5594 5590 5587 5583 5579 5575 5571 5568 5564 5562 5559 5555 5553 5551 5549 5547 5545 5543 5543 5543 5542 5541 5541 5541 5541 5542 5544 5545 5545 5548 5552 5555 5558 5560 5563 5566 5568
5607 5604 5602 5599 5596 5594 5590 5586 5582 5578 5573 5569 5566 5562 5558 5554 5550 5547 5545 5543 5541 5540 5538 5537 5536 5536 5535 5534 5533 5533 5533 5535 5538 5540 5538 5540 5545 5547 5550 5554 5557 5560 5562
5605 5602 5599 5596 5592 5589 5585 5581 5577 5573 5568 5564 5560 5556 5551 5547 5543 5539 5537 5534 5532 5531 5529 5529 5529 5529 5528 5529 5528 5527 5528 5528 5530 5532 5534 5533 5537 5539 5543 5547 5550 5553 5555